Regional Weather Roundup
Issued by NWS Goodland, KS

Home | Current Version | Previous Version | Text Only | Print | Product List | Glossary Off
Versions: 1 2 3 4 5 6 7 8 9 10 11 12 13 14 15 16 17 18 19 20 21 22 23 24 25 26 27 28 29 30 31 32 33 34 35 36 37 38 39 40 41 42 43 44 45 46 47 48 49 50

023
ASUS43 KGLD 261959
RWRGLD

GOODLAND FORECAST AREA HOURLY WEATHER ROUNDUP
NATIONAL WEATHER SERVICE GOODLAND KS
200 PM MDT WED APR 26 2017

...OFFICIAL OBSERVATIONS...

CITY           SKY/WX    TMP DP  RH WIND       PRES   REMARKS
GOODLAND KS    SUNNY     54  30  40 N17G33    29.73F
HILL CITY KS   PTSUNNY   55  32  41 N13G23    29.74S
IMPERIAL NEB   SUNNY     54  32  43 N14G22    29.73F
MCCOOK NEB     SUNNY     54  32  43 N12G23    29.73F
AKRON CO       SUNNY     55  28  35 NW12      29.73F
BURLINGTON CO  NOT AVBL
LIMON CO       SUNNY     55  29  36 N10G21    29.76F
$$

...UNOFFICIAL OBSERVATIONS...

CITY           SKY/WX    TMP DP  RH WIND       PRES   REMARKS
LENORA KS        N/A     50  32  50 MISG        N/A
NORTON KS      MOSUNNY   50  30  46 NW15G21   29.73S
SHARON SPRINGS   N/A     55  32  42 N14G26      N/A
TRENTON NEB      N/A     52  32  46 N9          N/A
KIT CARSON CO    N/A     54  31  40 MISG        N/A
$$




USA.gov is the U.S. government's official web portal to all federal, state and local government web resources and services.